[[{"header":{"parameterUnit":"m.s-1","parameterCategory":1,"la1":30.2991,"la2":30.254,"lo1":-89.0895,"lo2":-89.0444,"dx":0.0017,"dy":0.0017,"nx":28,"ny":28,"refTime":"2022-12-15T09:00:00:Z","depth":0,"parameterNumber":2,"parameterNumberName":"U-component_of_WINDS"},"data":[0,0,0,0,0,0,0,0,0,0,0,0,0,0,0,0,0,0,0,0,0,0,0,0,0,0,0,0,0,0,0,0,0,0,0,0,0,0,0,0,0,0,0,0,0,0,0,0,0,0,0,0,0,0,0,0,0,0,0.1728,0.1728,0,0.1718,0.1718,0.1717,0.1721,0.1721,0.1722,0.1722,0.171,0.171,0.1709,0,0,0,0,0,0,0,0,0,0,0,0,0,0.1751,0.175,0.1728,0.1728,0.1728,0.1718,0.1718,0.1717,0.1721,0.1721,0.1722,0.1722,0.1711,0.171,0.1709,0,0,0,0,0,0,0,0,0,0,0,0,0,0.1741,0.175,0.1728,0.1729,0.1728,0.1718,0.1718,0.1717,0.1721,0.1721,0.1722,0.1722,0.1711,0.171,0.1709,0.1697,0,0,0.1707,0.1706,0,0,0,0,0,0,0,0,0.1741,0.174,0.1729,0.1729,0.1728,0.1721,0.1721,0.1711,0.1721,0.1724,0.1722,0.1722,0.1714,0.1713,0.171,0.1697,0.1696,0.1707,0.1706,0.1706,0.1706,0,0,0,0,0,0,0,0.1742,0.174,0.1724,0.1728,0.1728,0.1729,0.1728,0.1719,0.1717,0.1724,0.1724,0.1723,0.1714,0.1711,0.171,0.1696,0.1707,0.1706,0.1706,0.1705,0.1673,0.1672,0,0,0,0,0,0,0.1743,0.1741,0.1724,0.1724,0.1736,0.1728,0.1727,0.1723,0.1717,0.1716,0.1722,0.1723,0.1712,0.1711,0.1709,0.1695,0.1706,0.1705,0.1705,0.1673,0.1673,0.1672,0,0,0,0,0,0,0.1743,0.1741,0.1725,0.1732,0.173,0.1728,0.1723,0.1723,0.172,0.1716,0.1716,0.172,0.1712,0.171,0.17,0.1694,0.1705,0.1704,0.1673,0.1673,0.1672,0.1665,0,0,0,0,0,0,0.1744,0.1741,0.1737,0.1732,0.173,0.1716,0.1723,0.1722,0.1718,0.1719,0.1713,0.1713,0.1712,0.1701,0.1699,0.1693,0.1703,0.1674,0.1673,0.1673,0.1666,0.1665,0.1663,0,0,0,0,0,0.1745,0.1735,0.1737,0.1735,0.1724,0.1716,0.1714,0.1714,0.1718,0.1713,0.1711,0.1713,0.1695,0.17,0.1698,0.1692,0.1674,0.1673,0.1673,0.1667,0.1665,0.1663,0,0,0,0,0,0,0.1739,0.1734,0.1736,0.1725,0.1721,0.1716,0.171,0.1712,0.1706,0.1707,0.1707,0.1705,0.1695,0.1693,0.1698,0.168,0.1685,0.1684,0.1682,0.168,0.1679,0.1679,0.1703,0,0,0,0,0,0.1736,0.173,0.1726,0.1717,0.1715,0.1713,0.1709,0.1709,0.1705,0.1703,0.17,0.1695,0.1689,0.1684,0.1678,0.1666,0.1665,0.1661,0.1659,0.1658,0.1657,0.165,0.1648,0.1669,0.1669,0.1669,0,0,0.1731,0.1728,0.1723,0.1715,0.1712,0.1705,0.1711,0.1704,0.1699,0.1702,0.1692,0.169,0.1685,0.1673,0.1668,0.1671,0.1651,0.1657,0.1656,0.1655,0.1649,0.1647,0.1645,0.1669,0.1669,0.1669,0,0,0.1717,0.1714,0.1706,0.1702,0.1698,0.1697,0.1695,0.169,0.1689,0.1679,0.1682,0.1676,0.1664,0.166,0.1657,0.1643,0.1644,0.1641,0.1633,0.1627,0.1625,0.1623,0.1618,0.1616,0.164,0.164,0.164,0,0.171,0.17,0.1701,0.1693,0.169,0.1693,0.1684,0.1681,0.1674,0.1672,0.1675,0.1661,0.1658,0.1646,0.1642,0.164,0.1637,0.1641,0.1625,0.1624,0.1622,0.1617,0.1615,0.1639,0.1639,0.1639,0.1639,0,0.1692,0.1685,0.1679,0.1673,0.1669,0.1661,0.166,0.1656,0.1657,0.1655,0.1645,0.1642,0.1635,0.1632,0.1633,0.162,0.1622,0.1625,0.1631,0.162,0.1615,0.1613,0.1638,0.1639,0.1639,0.1639,0,0,0.1673,0.1668,0.1666,0.1663,0.1658,0.1653,0.1645,0.1639,0.1635,0.1631,0.1624,0.1615,0.1618,0.1614,0.1614,0.1609,0.1597,0.1612,0.1612,0.1609,0.1582,0.1579,0.1577,0.1598,0.1598,0.1598,0.1583,0,0.1659,0.1645,0.1646,0.1633,0.1626,0.163,0.1623,0.1619,0.1618,0.1612,0.1611,0.1604,0.1609,0.1607,0.1601,0.1599,0.1591,0.1601,0.1591,0.1591,0.1592,0.1574,0.1571,0.1557,0.1581,0.158,0.158,0,0.1639,0.1635,0.1621,0.1618,0.1615,0.1609,0.1603,0.1598,0.1594,0.1593,0.1589,0.1591,0.1583,0.1589,0.1578,0.1584,0.1581,0.158,0.1579,0.1577,0.1584,0.1572,0.1553,0.155,0.1577,0.1577,0.1578,0,0.1626,0.1616,0.1607,0.1605,0.16,0.1596,0.1594,0.1591,0.1587,0.1582,0.1579,0.1574,0.157,0.1566,0.1566,0.1571,0.1554,0.1561,0.1553,0.1553,0.1549,0.1549,0.1528,0.1548,0.1548,0.1548,0.1548,0,0.1609,0.16,0.1601,0.1595,0.1586,0.1587,0.1577,0.1576,0.1573,0.1567,0.157,0.1564,0.1564,0.1558,0.1558,0.1549,0.1547,0.1547,0.1546,0.1546,0.1546,0.1543,0.1543,0.1547,0.1548,0.1548,0.1548,0,0.1592,0.1592,0.1582,0.1579,0.1578,0.1571,0.1569,0.1563,0.1563,0.1555,0.1553,0.1552,0.1546,0.1545,0.1537,0.1537,0.1526,0.1527,0.1527,0.1527,0.1519,0.1519,0.1495,0.1491,0.1514,0.1514,0.1514,0,0.158,0.1574,0.1571,0.1567,0.1565,0.1559,0.1555,0.1556,0.1552,0.1548,0.1542,0.1536,0.1531,0.152,0.1518,0.1512,0.1513,0.1505,0.1512,0.1512,0.1512,0.1512,0.1511,0.1503,0.1503,0.1503,0.1503,0,0.156,0.1561,0.1555,0.155,0.1546,0.1541,0.1538,0.1534,0.1535,0.1531,0.1524,0.152,0.1512,0.1506,0.15,0.1498,0.15,0.1501,0.1498,0.1497,0.1497,0.1496,0.1522,0.1501,0.1501,0.1501,0.1501,0.1501,0.1545,0.1539,0.1536,0.153,0.1528,0.1524,0.1519,0.1518,0.1512,0.1506,0.1507,0.15,0.1496,0.1489,0.1487,0.1481,0.1483,0.148,0.1479,0.1478,0.1477,0.1499,0.148,0.148,0.148,0.148,0.148,0,0.1524,0.1522,0.1517,0.1512,0.1507,0.151,0.1507,0.1502,0.1495,0.1492,0.1487,0.148,0.1474,0.1472,0.1466,0.1462,0.1462,0.146,0.146,0.1459,0.1475,0.1478,0.1459,0.1459,0.1459,0.1459,0.1459,0.1459,0.1512,0.1503,0.1503,0.1493,0.1491,0.1484,0.1481,0.1478,0.1475,0.1467,0.1462,0.1461,0.1459,0.1453,0.1447,0.1447,0.1444,0.1441,0.1441,0.1456,0.1458,0.146,0.1462,0.1441,0.1441,0.1425,0.1425,0.1425]},{"header":{"parameterUnit":"m.s-1","parameterCategory":1,"la1":30.2991,"la2":30.254,"lo1":-89.0895,"lo2":-89.0444,"dx":0.0017,"dy":0.0017,"nx":28,"ny":28,"refTime":"2022-12-15T09:00:00:Z","depth":0,"parameterNumber":3,"parameterNumberName":"V-component_of_WINDS"},"data":[0,0,0,0,0,0,0,0,0,0,0,0,0,0,0,0,0,0,0,0,0,0,0,0,0,0,0,0,0,0,0,0,0,0,0,0,0,0,0,0,0,0,0,0,0,0,0,0,0,0,0,0,0,0,0,0,0,0,-4.0065,-4.0066,0,-4.0195,-4.0197,-4.0198,-4.0174,-4.0172,-4.0169,-4.0167,-4.0297,-4.0303,-4.0309,0,0,0,0,0,0,0,0,0,0,0,0,0,-3.9794,-3.9799,-4.0065,-4.0067,-4.0068,-4.0195,-4.0197,-4.0198,-4.0174,-4.0171,-4.0169,-4.0166,-4.0296,-4.0302,-4.0309,0,0,0,0,0,0,0,0,0,0,0,0,0,-3.9917,-3.9801,-4.0065,-4.0071,-4.0073,-4.0195,-4.0197,-4.0199,-4.0175,-4.0171,-4.0168,-4.0165,-4.0293,-4.0302,-4.031,-4.0432,0,0,-4.0336,-4.0339,0,0,0,0,0,0,0,0,-3.991,-3.9927,-4.0069,-4.0071,-4.0074,-4.0165,-4.0149,-4.0277,-4.0176,-4.0136,-4.0167,-4.0163,-4.0256,-4.0267,-4.0299,-4.0438,-4.0443,-4.0337,-4.0342,-4.0345,-4.0348,0,0,0,0,0,0,0,-3.9901,-3.9921,-4.0116,-4.0071,-4.0074,-4.0068,-4.0081,-4.0173,-4.0214,-4.0139,-4.0138,-4.0154,-4.0257,-4.0291,-4.0302,-4.0445,-4.0336,-4.0344,-4.0349,-4.0352,-4.0692,-4.0696,0,0,0,0,0,0,-3.9891,-3.9914,-4.0112,-4.012,-3.9982,-4.0075,-4.009,-4.0139,-4.0213,-4.0221,-4.0157,-4.0152,-4.0278,-4.0292,-4.0307,-4.0456,-4.0345,-4.0353,-4.0358,-4.0688,-4.0693,-4.0697,0,0,0,0,0,0,-3.9885,-3.9909,-4.0107,-4.0017,-4.0042,-4.0084,-4.0138,-4.0143,-4.0178,-4.0226,-4.0233,-4.0185,-4.0276,-4.0295,-4.0401,-4.046,-4.0357,-4.0365,-4.0683,-4.069,-4.0695,-4.0754,0,0,0,0,0,0,-3.9877,-3.9907,-3.9954,-4.0018,-4.0047,-4.02,-4.0142,-4.0148,-4.0193,-4.0188,-4.0254,-4.0262,-4.0275,-4.0389,-4.041,-4.047,-4.0371,-4.0678,-4.0686,-4.0693,-4.0747,-4.0761,-4.0773,0,0,0,0,0,-3.9868,-3.9964,-3.9956,-3.998,-4.0106,-4.0204,-4.022,-4.0234,-4.0198,-4.0245,-4.0276,-4.0259,-4.045,-4.04,-4.0423,-4.0486,-4.0675,-4.0684,-4.0693,-4.0741,-4.0758,-4.0773,0,0,0,0,0,0,-3.9904,-3.9973,-3.9965,-4.0085,-4.0139,-4.0199,-4.026,-4.0252,-4.0316,-4.0309,-4.0323,-4.0338,-4.0447,-4.0477,-4.0421,-4.0609,-4.0557,-4.0571,-4.0586,-4.0603,-4.0615,-4.0607,-4.0378,0,0,0,0,0,-3.9926,-4.0001,-4.0056,-4.0156,-4.0184,-4.0218,-4.026,-4.0267,-4.0323,-4.0345,-4.0384,-4.0439,-4.0511,-4.0558,-4.0627,-4.0751,-4.0765,-4.0805,-4.0819,-4.0829,-4.0841,-4.0911,-4.093,-4.0726,-4.0726,-4.0726,0,0,-3.9973,-4.0019,-4.0065,-4.0165,-4.0208,-4.0284,-4.0237,-4.0319,-4.0376,-4.0357,-4.0462,-4.0492,-4.0554,-4.067,-4.0723,-4.0698,-4.0901,-4.084,-4.0849,-4.0855,-4.0922,-4.0941,-4.0958,-4.0733,-4.0731,-4.073,0,0,-4.0097,-4.0139,-4.0228,-4.0272,-4.0338,-4.036,-4.0381,-4.0444,-4.0464,-4.0569,-4.0557,-4.0624,-4.0748,-4.0793,-4.0832,-4.0975,-4.0962,-4.0996,-4.1065,-4.1133,-4.1149,-4.1163,-4.1216,-4.1234,-4.1008,-4.1008,-4.1008,0,-4.0146,-4.0261,-4.0275,-4.036,-4.0404,-4.0392,-4.0483,-4.0525,-4.0609,-4.0641,-4.0612,-4.0768,-4.0809,-4.0936,-4.0971,-4.1003,-4.1028,-4.099,-4.1146,-4.116,-4.1174,-4.1224,-4.1243,-4.1012,-4.1012,-4.1011,-4.1011,0,-4.0319,-4.0399,-4.0463,-4.0547,-4.0599,-4.0686,-4.0713,-4.0764,-4.0766,-4.0791,-4.0898,-4.0946,-4.1026,-4.1056,-4.1058,-4.1185,-4.1168,-4.1142,-4.1091,-4.1197,-4.1244,-4.1264,-4.1018,-4.1016,-4.1015,-4.1014,0,0,-4.0469,-4.0561,-4.0584,-4.0623,-4.0695,-4.0757,-4.0844,-4.0923,-4.0967,-4.1026,-4.1099,-4.1205,-4.1183,-4.1227,-4.1234,-4.1293,-4.1405,-4.126,-4.1262,-4.1287,-4.1549,-4.157,-4.1592,-4.1397,-4.14,-4.1403,-4.1545,0,-4.0601,-4.0756,-4.0772,-4.091,-4.0985,-4.0975,-4.1051,-4.1103,-4.1129,-4.1196,-4.1223,-4.1299,-4.1263,-4.129,-4.1348,-4.1379,-4.1458,-4.1369,-4.1466,-4.1469,-4.1453,-4.1616,-4.1637,-4.1769,-4.1563,-4.1566,-4.1569,0,-4.0776,-4.0842,-4.0988,-4.1052,-4.1084,-4.1152,-4.1227,-4.129,-4.135,-4.1364,-4.1415,-4.1414,-4.1504,-4.1448,-4.1572,-4.1511,-4.1551,-4.1573,-4.1578,-4.1589,-4.1526,-4.1633,-4.1811,-4.1831,-4.1598,-4.1595,-4.1593,0,-4.0874,-4.0998,-4.1103,-4.1136,-4.1212,-4.126,-4.1294,-4.135,-4.1397,-4.1462,-4.1493,-4.1566,-4.1607,-4.1664,-4.1684,-4.1641,-4.1807,-4.1753,-4.1823,-4.1822,-4.1859,-4.1857,-4.2048,-4.1882,-4.1882,-4.1882,-4.1881,0,-4.102,-4.1111,-4.1148,-4.1212,-4.1313,-4.133,-4.143,-4.1461,-4.1511,-4.1581,-4.1576,-4.1642,-4.1663,-4.1732,-4.1748,-4.1849,-4.1867,-4.1881,-4.1885,-4.1883,-4.1881,-4.1911,-4.1903,-4.1887,-4.1886,-4.1885,-4.1884,0,-4.1147,-4.1175,-4.1289,-4.1352,-4.137,-4.1442,-4.1496,-4.1558,-4.1583,-4.1672,-4.1694,-4.1732,-4.1814,-4.1839,-4.1936,-4.1947,-4.2066,-4.206,-4.2047,-4.2048,-4.2117,-4.2111,-4.2334,-4.2365,-4.2178,-4.218,-4.2181,0,-4.1239,-4.1309,-4.1381,-4.1428,-4.1464,-4.154,-4.1589,-4.1608,-4.1658,-4.1732,-4.1786,-4.1867,-4.1933,-4.2063,-4.21,-4.2175,-4.2172,-4.2245,-4.2183,-4.218,-4.2175,-4.2172,-4.218,-4.2257,-4.2259,-4.2261,-4.2262,0,-4.1402,-4.1413,-4.1483,-4.156,-4.1619,-4.1679,-4.1738,-4.1776,-4.1804,-4.1861,-4.1945,-4.1997,-4.2098,-4.2178,-4.2255,-4.2289,-4.2281,-4.2281,-4.2302,-4.2302,-4.2292,-4.23,-4.2081,-4.2276,-4.2275,-4.2274,-4.2273,-4.2273,-4.1515,-4.1578,-4.1638,-4.1718,-4.1764,-4.1819,-4.1881,-4.1915,-4.1986,-4.207,-4.2077,-4.2168,-4.2227,-4.2329,-4.2367,-4.2439,-4.2417,-4.2447,-4.2454,-4.2462,-4.2468,-4.2279,-4.2452,-4.2452,-4.2452,-4.2451,-4.2451,0,-4.1679,-4.1718,-4.1791,-4.1874,-4.1936,-4.1924,-4.1988,-4.2042,-4.2123,-4.2178,-4.2244,-4.2341,-4.242,-4.2463,-4.2542,-4.2591,-4.2589,-4.2611,-4.2608,-4.2617,-4.2482,-4.2457,-4.2611,-4.2611,-4.2611,-4.2611,-4.2611,-4.2611,-4.1771,-4.1877,-4.1895,-4.2024,-4.2061,-4.2152,-4.2191,-4.2242,-4.2286,-4.2396,-4.2462,-4.249,-4.2541,-4.2624,-4.2695,-4.2706,-4.2736,-4.276,-4.2769,-4.2642,-4.2626,-4.261,-4.2587,-4.2766,-4.2767,-4.2898,-4.2899,-4.29]}]]